QPF
0.00 0.00 0.00 0.00 0.00 0.00 0.00 0.00 0.00 0.00 0.00 0.00 0.00 0.00 0.00 0.00 0.00 0.00 0.00 0.00 0.00 0.00 0.00 0.00 0.00 0.00 0.00 0.01 0.01 0.01 0.01 0.02 0.03 0.04 0.05 0.05 0.05 0.05 0.04 0.03 0.03 0.02 0.03 0.03
0.00 0.00 0.00 0.00 0.00 0.00 0.00 0.00 0.00 0.00 0.00 0.00 0.00 0.00 0.00 0.00 0.00 0.00 0.00 0.00 0.00 0.00 0.00 0.00 0.00 0.00 0.01 0.03 0.02 0.01 0.02 0.03 0.05 0.05 0.06 0.06 0.05 0.05 0.04 0.04 0.05 0.05 0.06 0.06
0.00 0.00 0.00 0.00 0.00 0.00 0.00 0.00 0.00 0.00 0.00 0.00 0.00 0.00 0.00 0.00 0.00 0.00 0.00 0.00 0.00 0.00 0.00 0.01 0.01 0.03 0.06 0.08 0.06 0.05 0.06 0.07 0.08 0.09 0.08 0.09 0.09 0.09 0.09 0.09 0.10 0.10 0.09 0.09
0.00 0.00 0.00 0.00 0.00 0.00 0.00 0.00 0.00 0.00 0.00 0.00 0.00 0.00 0.00 0.00 0.00 0.00 0.00 0.00 0.00 0.00 0.01 0.02 0.04 0.07 0.11 0.14 0.17 0.17 0.17 0.18 0.18 0.18 0.17 0.16 0.16 0.16 0.15 0.15 0.15 0.16 0.16 0.16
0.00 0.00 0.00 0.00 0.00 0.00 0.00 0.00 0.00 0.00 0.00 0.00 0.00 0.00 0.00 0.00 0.00 0.00 0.00 0.00 0.00 0.00 0.01 0.03 0.05 0.09 0.13 0.17 0.21 0.24 0.26 0.29 0.28 0.26 0.27 0.27 0.28 0.27 0.25 0.25 0.27 0.29 0.28 0.28
0.01 0.01 0.00 0.00 0.00 0.00 0.00 0.00 0.00 0.00 0.00 0.00 0.00 0.00 0.00 0.00 0.00 0.00 0.00 0.00 0.00 0.00 0.00 0.02 0.03 0.05 0.08 0.11 0.14 0.18 0.23 0.26 0.26 0.26 0.27 0.28 0.28 0.28 0.28 0.28 0.28 0.27 0.24 0.20
0.02 0.01 0.00 0.00 0.00 0.00 0.00 0.00 0.00 0.00 0.00 0.00 0.00 0.00 0.00 0.00 0.00 0.00 0.00 0.00 0.00 0.00 0.01 0.01 0.02 0.04 0.07 0.11 0.12 0.16 0.19 0.21 0.21 0.21 0.22 0.22 0.22 0.22 0.21 0.18 0.14 0.11 0.08 0.05
0.01 0.01 0.00 0.00 0.00 0.00 0.00 0.00 0.00 0.00 0.00 0.00 0.00 0.00 0.00 0.00 0.00 0.00 0.00 0.00 0.00 0.01 0.01 0.02 0.03 0.05 0.07 0.10 0.12 0.14 0.17 0.17 0.16 0.16 0.15 0.13 0.12 0.10 0.07 0.05 0.04 0.02 0.01 0.01
0.00 0.00 0.00 0.00 0.00 0.00 0.00 0.00 0.00 0.00 0.00 0.00 0.00 0.00 0.00 0.00 0.00 0.00 0.00 0.00 0.00 0.00 0.01 0.01 0.02 0.03 0.04 0.04 0.04 0.05 0.06 0.05 0.04 0.04 0.03 0.02 0.02 0.01 0.01 0.00 0.00 0.00 0.00 0.00
0.00 0.00 0.00 0.00 0.00 0.00 0.00 0.00 0.00 0.00 0.00 0.00 0.00 0.00 0.00 0.00 0.00 0.00 0.00 0.00 0.00 0.00 0.00 0.00 0.01 0.01 0.01 0.01 0.01 0.01 0.01 0.01 0.00 0.00 0.00 0.00 0.00 0.00 0.00 0.00 0.00 0.00 0.00 0.00
0.00 0.00 0.00 0.00 0.00 0.00 0.00 0.00 0.00 0.00 0.00 0.00 0.00 0.00 0.00 0.00 0.00 0.00 0.00 0.00 0.00 0.00 0.00 0.00 0.00 0.00 0.00 0.00 0.00 0.00 0.00 0.00 0.00 0.00 0.00 0.00 0.00 0.00 0.00 0.00 0.00 0.00 0.00 0.00
0.00 0.00 0.00 0.00 0.00 0.00 0.00 0.00 0.00 0.00 0.00 0.00 0.00 0.00 0.00 0.00 0.00 0.00 0.00 0.00 0.00 0.00 0.00 0.00 0.00 0.00 0.00 0.00 0.00 0.00 0.00 0.00 0.00 0.00 0.00 0.00 0.00 0.00 0.00 0.00 0.00 0.00 0.00 0.00
0.00 0.00 0.00 0.00 0.00 0.00 0.00 0.00 0.00 0.00 0.00 0.00 0.00 0.00 0.00 0.00 0.00 0.00 0.00 0.00 0.00 0.00 0.00 0.00 0.00 0.00 0.00 0.00 0.00 0.00 0.00 0.00 0.00 0.00 0.00 0.00 0.00 0.00 0.00 0.00 0.00 0.00 0.00 0.00
0.00 0.00 0.00 0.00 0.00 0.00 0.00 0.00 0.00 0.00 0.00 0.00 0.00 0.00 0.00 0.00 0.00 0.00 0.01 0.00 0.00 0.00 0.00 0.00 0.00 0.00 0.00 0.00 0.00 0.00 0.00 0.00 0.00 0.00 0.00 0.00 0.00 0.00 0.00 0.00 0.00 0.00 0.00 0.00
0.00 0.00 0.00 0.00 0.00 0.00 0.00 0.00 0.00 0.00 0.00 0.00 0.00 0.00 0.00 0.00 0.00 0.00 0.00 0.00 0.00 0.00 0.00 0.00 0.00 0.00 0.00 0.00 0.00 0.00 0.00 0.00 0.00 0.00 0.00 0.00 0.00 0.00 0.00 0.00 0.00 0.00 0.00 0.00
0.00 0.00 0.00 0.00 0.00 0.00 0.00 0.00 0.00 0.00 0.00 0.00 0.00 0.00 0.00 0.00 0.00 0.00 0.00 0.00 0.00 0.00 0.00 0.00 0.00 0.00 0.00 0.00 0.00 0.00 0.00 0.00 0.00 0.00 0.00 0.00 0.00 0.00 0.00 0.00 0.00 0.00 0.00 0.00
0.00 0.00 0.00 0.00 0.00 0.00 0.00 0.00 0.00 0.00 0.00 0.00 0.00 0.00 0.00 0.00 0.00 0.00 0.00 0.00 0.00 0.00 0.00 0.00 0.00 0.00 0.00 0.00 0.00 0.00 0.00 0.00 0.00 0.00 0.00 0.00 0.00 0.00 0.00 0.00 0.00 0.00 0.00 0.00
0.00 0.00 0.00 0.00 0.00 0.00 0.00 0.00 0.00 0.00 0.00 0.01 0.01 0.01 0.01 0.00 0.00 0.00 0.00 0.00 0.00 0.00 0.00 0.00 0.00 0.00 0.00 0.00 0.00 0.00 0.00 0.00 0.00 0.00 0.00 0.00 0.00 0.00 0.00 0.00 0.00 0.00 0.00 0.00
0.00 0.00 0.00 0.01 0.01 0.00 0.00 0.00 0.00 0.01 0.01 0.01 0.01 0.01 0.01 0.00 0.00 0.00 0.00 0.00 0.00 0.00 0.00 0.00 0.00 0.00 0.00 0.00 0.00 0.00 0.00 0.00 0.00 0.00 0.00 0.00 0.00 0.00 0.00 0.00 0.00 0.00 0.00 0.00
0.02 0.01 0.01 0.01 0.01 0.01 0.01 0.01 0.01 0.01 0.02 0.02 0.02 0.02 0.01 0.01 0.00 0.00 0.00 0.00 0.00 0.00 0.00 0.00 0.00 0.00 0.00 0.00 0.00 0.00 0.00 0.00 0.00 0.00 0.00 0.00 0.00 0.00 0.00 0.00 0.00 0.00 0.00 0.00
0.04 0.04 0.04 0.04 0.04 0.03 0.02 0.02 0.02 0.03 0.03 0.03 0.04 0.03 0.02 0.01 0.00 0.00 0.00 0.00 0.00 0.00 0.00 0.00 0.00 0.00 0.00 0.00 0.00 0.00 0.00 0.00 0.00 0.00 0.00 0.00 0.00 0.00 0.00 0.00 0.00 0.00 0.00 0.00
0.05 0.06 0.05 0.05 0.05 0.05 0.04 0.04 0.03 0.04 0.06 0.06 0.06 0.04 0.02 0.01 0.01 0.00 0.00 0.00 0.00 0.00 0.00 0.00 0.00 0.00 0.00 0.00 0.00 0.00 0.00 0.00 0.00 0.00 0.00 0.00 0.00 0.00 0.00 0.00 0.00 0.00 0.00 0.00
0.01 0.01 0.02 0.02 0.03 0.03 0.04 0.05 0.06 0.06 0.08 0.09 0.08 0.05 0.04 0.03 0.01 0.00 0.00 0.00 0.00 0.00 0.00 0.00 0.00 0.00 0.00 0.00 0.00 0.00 0.00 0.00 0.00 0.00 0.00 0.00 0.00 0.00 0.00 0.00 0.00 0.00 0.00 0.00
0.00 0.00 0.00 0.01 0.01 0.02 0.03 0.04 0.05 0.06 0.07 0.08 0.07 0.05 0.03 0.02 0.01 0.00 0.00 0.00 0.00 0.00 0.00 0.00 0.00 0.00 0.00 0.00 0.00 0.00 0.00 0.00 0.00 0.00 0.00 0.00 0.00 0.00 0.00 0.00 0.00 0.00 0.00 0.00
0.00 0.00 0.00 0.00 0.00 0.00 0.01 0.02 0.03 0.04 0.05 0.06 0.05 0.04 0.03 0.02 0.02 0.01 0.00 0.00 0.00 0.00 0.00 0.00 0.00 0.00 0.00 0.00 0.00 0.00 0.00 0.00 0.00 0.00 0.00 0.00 0.00 0.00 0.00 0.00 0.00 0.00 0.00 0.00
0.00 0.00 0.00 0.00 0.00 0.00 0.00 0.00 0.00 0.01 0.02 0.04 0.04 0.04 0.03 0.03 0.02 0.01 0.01 0.00 0.00 0.00 0.00 0.00 0.00 0.00 0.00 0.00 0.00 0.00 0.00 0.00 0.00 0.00 0.00 0.00 0.00 0.00 0.00 0.00 0.00 0.00 0.00 0.00
0.00 0.00 0.00 0.00 0.00 0.00 0.00 0.00 0.00 0.00 0.00 0.01 0.02 0.02 0.03 0.03 0.03 0.03 0.02 0.01 0.01 0.01 0.00 0.00 0.00 0.00 0.00 0.00 0.00 0.00 0.00 0.00 0.00 0.00 0.00 0.00 0.00 0.00 0.00 0.00 0.00 0.00 0.00 0.00
MSLP
1017.00 1017.69 1018.27 1018.68 1018.86 1018.76 1018.40 1017.78 1016.98 1016.07 1015.13 1014.26 1013.53 1012.98 1012.63 1012.47 1012.44 1012.50 1012.59 1012.66 1012.65 1012.54 1012.32 1011.99 1011.58 1011.11 1010.59 1010.07 1009.55 1009.07 1008.64 1008.30 1008.05 1007.94 1007.97 1008.15 1008.49 1008.98 1009.58 1010.28 1011.05 1011.85 1012.65 1013.45
1016.86 1017.41 1017.82 1018.05 1018.05 1017.80 1017.32 1016.65 1015.87 1015.04 1014.26 1013.58 1013.08 1012.78 1012.66 1012.70 1012.84 1013.04 1013.23 1013.35 1013.37 1013.27 1013.05 1012.73 1012.31 1011.84 1011.33 1010.81 1010.31 1009.84 1009.44 1009.13 1008.92 1008.84 1008.90 1009.11 1009.47 1009.97 1010.58 1011.27 1012.01 1012.78 1013.54 1014.29
1016.56 1016.93 1017.14 1017.17 1016.98 1016.60 1016.04 1015.37 1014.65 1013.96 1013.37 1012.93 1012.69 1012.64 1012.75 1013.00 1013.31 1013.62 1013.89 1014.05 1014.09 1014.00 1013.78 1013.46 1013.05 1012.60 1012.12 1011.64 1011.18 1010.77 1010.43 1010.17 1010.01 1009.98 1010.09 1010.33 1010.71 1011.21 1011.80 1012.46 1013.16 1013.87 1014.56 1015.24
1016.14 1016.28 1016.27 1016.09 1015.75 1015.25 1014.66 1014.03 1013.42 1012.90 1012.53 1012.34 1012.36 1012.55 1012.89 1013.31 1013.75 1014.16 1014.48 1014.68 1014.73 1014.64 1014.43 1014.12 1013.74 1013.32 1012.90 1012.49 1012.11 1011.78 1011.52 1011.34 1011.26 1011.29 1011.44 1011.72 1012.11 1012.59 1013.15 1013.76 1014.40 1015.03 1015.64 1016.23
1015.60 1015.52 1015.30 1014.94 1014.47 1013.91 1013.32 1012.75 1012.28 1011.95 1011.80 1011.85 1012.10 1012.51 1013.02 1013.58 1014.13 1014.60 1014.95 1015.16 1015.21 1015.13 1014.93 1014.65 1014.32 1013.97 1013.62 1013.30 1013.03 1012.81 1012.65 1012.57 1012.57 1012.67 1012.87 1013.16 1013.55 1014.01 1014.52 1015.07 1015.62 1016.15 1016.66 1017.15
1014.99 1014.71 1014.31 1013.82 1013.26 1012.68 1012.13 1011.67 1011.34 1011.19 1011.25 1011.50 1011.93 1012.50 1013.14 1013.79 1014.39 1014.89 1015.26 1015.47 1015.53 1015.46 1015.29 1015.05 1014.79 1014.52 1014.28 1014.07 1013.91 1013.81 1013.76 1013.78 1013.87 1014.03 1014.27 1014.57 1014.95 1015.37 1015.82 1016.28 1016.74 1017.17 1017.57 1017.95
1014.31 1013.89 1013.38 1012.82 1012.24 1011.68 1011.20 1010.85 1010.67 1010.69 1010.90 1011.30 1011.86 1012.53 1013.24 1013.93 1014.54 1015.05 1015.41 1015.62 1015.69 1015.65 1015.53 1015.36 1015.18 1015.01 1014.88 1014.79 1014.76 1014.77 1014.83 1014.94 1015.10 1015.31 1015.57 1015.88 1016.22 1016.59 1016.97 1017.35 1017.70 1018.03 1018.32 1018.59
1013.62 1013.13 1012.58 1012.01 1011.46 1010.97 1010.59 1010.36 1010.30 1010.44 1010.76 1011.26 1011.88 1012.58 1013.30 1013.98 1014.59 1015.07 1015.42 1015.64 1015.74 1015.75 1015.70 1015.62 1015.54 1015.49 1015.47 1015.50 1015.57 1015.68 1015.83 1016.01 1016.22 1016.47 1016.74 1017.03 1017.34 1017.65 1017.95 1018.24 1018.50 1018.73 1018.92 1019.08
1012.96 1012.47 1011.95 1011.43 1010.95 1010.56 1010.29 1010.16 1010.21 1010.43 1010.82 1011.34 1011.97 1012.65 1013.34 1013.98 1014.55 1015.01 1015.36 1015.60 1015.75 1015.82 1015.86 1015.88 1015.92 1015.97 1016.07 1016.20 1016.36 1016.55 1016.76 1016.99 1017.23 1017.49 1017.75 1018.02 1018.28 1018.53 1018.77 1018.98 1019.15 1019.29 1019.39 1019.47
1012.39 1011.96 1011.51 1011.09 1010.72 1010.43 1010.26 1010.23 1010.34 1010.60 1011.00 1011.51 1012.10 1012.73 1013.35 1013.94 1014.47 1014.91 1015.27 1015.55 1015.75 1015.92 1016.06 1016.19 1016.33 1016.50 1016.68 1016.90 1017.13 1017.37 1017.61 1017.87 1018.12 1018.36 1018.61 1018.84 1019.06 1019.26 1019.44 1019.58 1019.69 1019.76 1019.80 1019.82
1011.99 1011.65 1011.30 1010.98 1010.71 1010.53 1010.44 1010.47 1010.62 1010.88 1011.26 1011.72 1012.24 1012.80 1013.35 1013.88 1014.37 1014.81 1015.19 1015.52 1015.80 1016.06 1016.30 1016.54 1016.79 1017.04 1017.31 1017.57 1017.84 1018.11 1018.36 1018.61 1018.85 1019.08 1019.30 1019.51 1019.69 1019.85 1019.99 1020.09 1020.15 1020.18 1020.18 1020.16
1011.80 1011.55 1011.30 1011.07 1010.88 1010.77 1010.73 1010.79 1010.94 1011.19 1011.52 1011.91 1012.37 1012.85 1013.34 1013.83 1014.30 1014.74 1015.15 1015.54 1015.91 1016.26 1016.60 1016.93 1017.26 1017.58 1017.89 1018.19 1018.47 1018.73 1018.98 1019.22 1019.44 1019.65 1019.84 1020.03 1020.19 1020.33 1020.45 1020.53 1020.57 1020.58 1020.56 1020.53
1011.85 1011.66 1011.47 1011.29 1011.15 1011.06 1011.04 1011.10 1011.23 1011.44 1011.73 1012.07 1012.46 1012.88 1013.33 1013.79 1014.26 1014.72 1015.18 1015.63 1016.06 1016.49 1016.91 1017.31 1017.69 1018.05 1018.39 1018.69 1018.97 1019.23 1019.46 1019.67 1019.87 1020.06 1020.25 1020.42 1020.58 1020.72 1020.83 1020.91 1020.96 1020.97 1020.95 1020.91
1012.10 1011.93 1011.75 1011.58 1011.43 1011.34 1011.30 1011.33 1011.44 1011.62 1011.86 1012.16 1012.51 1012.91 1013.34 1013.80 1014.27 1014.76 1015.26 1015.76 1016.25 1016.73 1017.20 1017.64 1018.05 1018.42 1018.76 1019.06 1019.33 1019.57 1019.78 1019.98 1020.17 1020.35 1020.54 1020.71 1020.88 1021.03 1021.16 1021.25 1021.31 1021.34 1021.33 1021.29
1012.50 1012.30 1012.08 1011.86 1011.67 1011.53 1011.46 1011.46 1011.53 1011.68 1011.91 1012.20 1012.55 1012.94 1013.38 1013.85 1014.35 1014.86 1015.39 1015.92 1016.44 1016.95 1017.44 1017.89 1018.30 1018.67 1019.00 1019.29 1019.54 1019.77 1019.97 1020.17 1020.36 1020.55 1020.74 1020.93 1021.11 1021.28 1021.43 1021.54 1021.62 1021.65 1021.66 1021.63
1012.95 1012.68 1012.38 1012.08 1011.82 1011.62 1011.50 1011.46 1011.51 1011.66 1011.89 1012.19 1012.56 1012.98 1013.45 1013.95 1014.47 1015.00 1015.55 1016.09 1016.62 1017.12 1017.60 1018.04 1018.44 1018.80 1019.12 1019.40 1019.64 1019.87 1020.08 1020.29 1020.49 1020.70 1020.91 1021.11 1021.31 1021.49 1021.65 1021.77 1021.86 1021.90 1021.91 1021.88
1013.37 1013.00 1012.60 1012.21 1011.86 1011.59 1011.42 1011.36 1011.41 1011.57 1011.82 1012.16 1012.57 1013.04 1013.54 1014.07 1014.61 1015.16 1015.70 1016.23 1016.74 1017.23 1017.68 1018.10 1018.48 1018.82 1019.13 1019.42 1019.67 1019.92 1020.15 1020.38 1020.61 1020.84 1021.08 1021.30 1021.51 1021.69 1021.85 1021.97 1022.05 1022.08 1022.08 1022.04
1013.68 1013.21 1012.71 1012.22 1011.80 1011.47 1011.27 1011.20 1011.26 1011.44 1011.74 1012.13 1012.59 1013.10 1013.64 1014.19 1014.75 1015.30 1015.82 1016.33 1016.81 1017.26 1017.68 1018.07 1018.44 1018.78 1019.09 1019.39 1019.68 1019.96 1020.23 1020.50 1020.77 1021.03 1021.27 1021.51 1021.71 1021.89 1022.02 1022.12 1022.18 1022.19 1022.16 1022.10
1013.87 1013.31 1012.73 1012.17 1011.69 1011.33 1011.10 1011.03 1011.12 1011.34 1011.68 1012.11 1012.62 1013.17 1013.73 1014.30 1014.85 1015.38 1015.88 1016.35 1016.79 1017.21 1017.60 1017.98 1018.34 1018.69 1019.03 1019.37 1019.70 1020.04 1020.36 1020.67 1020.98 1021.26 1021.52 1021.74 1021.94 1022.08 1022.19 1022.24 1022.26 1022.23 1022.17 1022.07
1013.96 1013.35 1012.72 1012.12 1011.61 1011.23 1011.00 1010.95 1011.05 1011.30 1011.67 1012.14 1012.67 1013.23 1013.80 1014.35 1014.89 1015.38 1015.85 1016.28 1016.69 1017.08 1017.46 1017.83 1018.20 1018.59 1018.97 1019.36 1019.75 1020.14 1020.52 1020.88 1021.22 1021.52 1021.78 1021.99 1022.15 1022.26 1022.32 1022.33 1022.30 1022.22 1022.11 1021.98
1014.04 1013.41 1012.75 1012.14 1011.63 1011.26 1011.04 1010.99 1011.11 1011.36 1011.74 1012.21 1012.73 1013.28 1013.83 1014.35 1014.85 1015.31 1015.73 1016.13 1016.52 1016.89 1017.27 1017.65 1018.06 1018.48 1018.91 1019.36 1019.82 1020.26 1020.69 1021.09 1021.45 1021.76 1022.01 1022.20 1022.33 1022.40 1022.41 1022.37 1022.28 1022.16 1022.00 1021.83
1014.17 1013.55 1012.91 1012.32 1011.83 1011.47 1011.26 1011.21 1011.32 1011.56 1011.91 1012.34 1012.82 1013.32 1013.82 1014.29 1014.74 1015.16 1015.55 1015.92 1016.28 1016.66 1017.04 1017.46 1017.90 1018.37 1018.86 1019.36 1019.87 1020.36 1020.82 1021.25 1021.62 1021.93 1022.16 1022.33 1022.42 1022.45 1022.41 1022.32 1022.19 1022.03 1021.84 1021.63
1014.41 1013.83 1013.24 1012.69 1012.23 1011.88 1011.68 1011.61 1011.69 1011.88 1012.17 1012.54 1012.94 1013.37 1013.79 1014.20 1014.58 1014.95 1015.31 1015.66 1016.02 1016.41 1016.82 1017.26 1017.74 1018.25 1018.79 1019.33 1019.87 1020.39 1020.87 1021.31 1021.67 1021.97 1022.18 1022.32 1022.38 1022.37 1022.30 1022.18 1022.02 1021.83 1021.61 1021.38
1014.77 1014.26 1013.73 1013.23 1012.80 1012.47 1012.25 1012.16 1012.18 1012.30 1012.51 1012.78 1013.08 1013.41 1013.75 1014.08 1014.40 1014.73 1015.06 1015.40 1015.77 1016.17 1016.61 1017.08 1017.60 1018.14 1018.70 1019.27 1019.82 1020.35 1020.82 1021.24 1021.59 1021.86 1022.05 1022.15 1022.19 1022.16 1022.07 1021.92 1021.75 1021.54 1021.30 1021.05
1015.22 1014.77 1014.31 1013.87 1013.48 1013.16 1012.92 1012.78 1012.74 1012.77 1012.87 1013.03 1013.23 1013.45 1013.70 1013.96 1014.23 1014.52 1014.83 1015.17 1015.56 1015.98 1016.44 1016.94 1017.48 1018.04 1018.61 1019.17 1019.71 1020.22 1020.66 1021.05 1021.36 1021.60 1021.75 1021.84 1021.85 1021.80 1021.70 1021.55 1021.37 1021.16 1020.92 1020.65
1015.66 1015.30 1014.91 1014.52 1014.15 1013.84 1013.58 1013.39 1013.27 1013.21 1013.21 1013.26 1013.35 1013.48 1013.65 1013.84 1014.07 1014.34 1014.65 1015.00 1015.40 1015.84 1016.33 1016.86 1017.40 1017.96 1018.52 1019.06 1019.56 1020.02 1020.42 1020.76 1021.03 1021.22 1021.34 1021.40 1021.39 1021.33 1021.23 1021.09 1020.91 1020.69 1020.45 1020.17
1016.02 1015.72 1015.40 1015.06 1014.72 1014.41 1014.13 1013.89 1013.70 1013.56 1013.46 1013.42 1013.43 1013.48 1013.58 1013.73 1013.94 1014.20 1014.52 1014.89 1015.31 1015.78 1016.29 1016.82 1017.37 1017.91 1018.44 1018.94 1019.39 1019.80 1020.14 1020.41 1020.63 1020.77 1020.86 1020.88 1020.86 1020.79 1020.69 1020.54 1020.37 1020.15 1019.90 1019.62
Thickness
5504 5512 5512 5513 5514 5507 5507 5506 5506 5516 5522 5548 5556 5559 5559 5553 5543 5537 5533 5531 5527 5524 5521 5515 5509 5502 5495 5490 5488 5488 5489 5491 5494 5497 5500 5501 5503 5505 5508 5510 5512 5513 5514 5513
5501 5508 5507 5508 5512 5513 5513 5516 5518 5524 5535 5556 5557 5554 5552 5544 5533 5528 5524 5522 5518 5514 5511 5506 5500 5493 5486 5482 5479 5477 5477 5477 5479 5482 5484 5486 5488 5490 5491 5493 5495 5497 5498 5499
5496 5504 5509 5510 5521 5520 5518 5523 5528 5530 5544 5554 5552 5551 5546 5534 5525 5519 5515 5513 5508 5505 5502 5498 5492 5486 5479 5474 5472 5470 5467 5466 5466 5467 5469 5471 5473 5474 5475 5478 5481 5483 5485 5487
5497 5506 5503 5531 5542 5532 5529 5534 5536 5541 5548 5550 5549 5545 5535 5526 5518 5512 5509 5505 5501 5498 5495 5491 5486 5481 5476 5472 5468 5465 5462 5459 5457 5457 5457 5458 5460 5462 5463 5466 5470 5472 5474 5475
5502 5504 5509 5532 5540 5532 5530 5540 5545 5542 5547 5548 5546 5538 5530 5520 5515 5508 5504 5501 5497 5494 5491 5488 5483 5479 5474 5470 5466 5462 5459 5455 5453 5452 5452 5452 5453 5454 5456 5459 5461 5463 5463 5464
5503 5505 5511 5536 5544 5543 5542 5543 5551 5546 5545 5545 5541 5538 5536 5516 5510 5505 5501 5498 5495 5492 5489 5486 5481 5477 5473 5469 5465 5461 5457 5454 5452 5451 5450 5450 5451 5452 5453 5455 5455 5455 5455 5454
5504 5504 5509 5531 5539 5540 5538 5544 5551 5549 5546 5543 5537 5536 5524 5512 5507 5502 5499 5496 5493 5490 5487 5483 5479 5475 5471 5466 5462 5459 5456 5454 5452 5451 5450 5449 5449 5449 5449 5449 5448 5447 5445 5443
5506 5505 5511 5536 5533 5536 5543 5546 5546 5545 5544 5540 5535 5523 5516 5510 5505 5500 5497 5494 5491 5487 5483 5480 5477 5473 5467 5463 5459 5457 5455 5452 5450 5448 5448 5446 5445 5443 5443 5442 5440 5438 5435 5432
5508 5517 5528 5532 5534 5539 5540 5539 5541 5539 5539 5535 5528 5520 5514 5508 5502 5498 5494 5491 5488 5484 5480 5476 5473 5470 5465 5461 5458 5455 5453 5449 5446 5444 5442 5441 5440 5438 5436 5434 5432 5429 5427 5423
5506 5513 5520 5525 5528 5532 5535 5536 5538 5535 5533 5528 5524 5519 5512 5506 5500 5496 5492 5488 5485 5481 5476 5472 5469 5466 5463 5459 5456 5453 5449 5445 5442 5439 5436 5435 5434 5432 5429 5427 5424 5423 5420 5415
5510 5517 5521 5530 5532 5533 5534 5533 5531 5530 5528 5525 5521 5516 5511 5505 5499 5494 5490 5485 5481 5477 5473 5469 5467 5463 5460 5456 5453 5449 5445 5441 5437 5434 5431 5429 5428 5425 5424 5420 5419 5416 5412 5408
5508 5512 5513 5517 5523 5525 5526 5527 5527 5526 5523 5521 5518 5514 5508 5503 5498 5492 5487 5482 5478 5474 5471 5466 5463 5459 5456 5453 5450 5447 5441 5436 5433 5429 5427 5424 5422 5420 5420 5417 5415 5412 5407 5403
5502 5504 5504 5509 5513 5517 5519 5521 5522 5520 5518 5515 5512 5509 5504 5499 5494 5489 5484 5480 5476 5472 5468 5463 5459 5455 5452 5450 5446 5442 5437 5432 5428 5425 5421 5418 5416 5411 5408 5407 5405 5403 5400 5396
5491 5490 5497 5503 5504 5506 5510 5512 5512 5511 5510 5508 5505 5502 5498 5493 5489 5485 5481 5477 5473 5468 5464 5459 5455 5451 5448 5446 5442 5437 5433 5430 5424 5419 5415 5412 5409 5405 5402 5398 5394 5390 5388 5385
5479 5478 5482 5488 5493 5498 5500 5499 5500 5499 5498 5498 5496 5495 5492 5488 5484 5481 5477 5473 5468 5463 5459 5454 5450 5446 5444 5442 5438 5433 5428 5423 5418 5414 5411 5407 5403 5399 5395 5390 5385 5380 5377 5373
5468 5472 5477 5483 5487 5491 5492 5493 5493 5493 5490 5490 5488 5487 5485 5483 5479 5475 5471 5468 5464 5459 5454 5450 5446 5443 5440 5437 5433 5428 5424 5421 5415 5410 5406 5401 5397 5392 5387 5382 5377 5372 5367 5362
5460 5466 5470 5473 5478 5482 5485 5487 5488 5489 5486 5484 5482 5480 5477 5474 5470 5467 5464 5461 5458 5454 5450 5447 5443 5439 5436 5432 5428 5423 5419 5416 5412 5405 5400 5395 5390 5385 5380 5375 5369 5364 5359 5355
5454 5459 5462 5466 5470 5475 5482 5485 5486 5485 5483 5480 5476 5473 5471 5469 5466 5461 5456 5452 5449 5445 5443 5440 5437 5433 5430 5427 5423 5418 5413 5408 5403 5398 5393 5388 5383 5378 5373 5368 5362 5357 5351 5346
5450 5454 5458 5463 5468 5473 5479 5483 5483 5482 5479 5475 5471 5468 5466 5463 5460 5455 5450 5447 5444 5440 5436 5434 5433 5428 5424 5421 5417 5412 5407 5402 5397 5392 5387 5383 5376 5370 5365 5360 5355 5350 5345 5340
5445 5449 5453 5459 5465 5470 5475 5478 5478 5475 5472 5469 5466 5462 5459 5456 5452 5448 5445 5443 5441 5438 5433 5430 5427 5422 5418 5414 5411 5405 5400 5395 5390 5385 5379 5374 5368 5363 5358 5354 5349 5343 5338 5333
5439 5443 5447 5452 5458 5462 5466 5469 5469 5466 5464 5462 5460 5457 5454 5450 5446 5443 5440 5438 5434 5431 5428 5426 5420 5416 5412 5408 5404 5398 5393 5388 5383 5377 5372 5366 5361 5356 5351 5347 5342 5338 5333 5327
5433 5436 5440 5444 5449 5452 5455 5458 5459 5458 5455 5453 5451 5449 5446 5442 5440 5438 5437 5435 5431 5428 5424 5420 5415 5412 5407 5403 5396 5391 5385 5380 5375 5370 5364 5359 5355 5350 5345 5341 5336 5331 5325 5319
5427 5429 5432 5436 5439 5442 5446 5448 5449 5448 5447 5446 5444 5442 5441 5439 5437 5435 5432 5429 5427 5425 5419 5415 5411 5408 5404 5396 5389 5384 5379 5373 5368 5363 5359 5354 5349 5344 5339 5334 5329 5324 5319 5313
5421 5423 5425 5428 5432 5435 5437 5437 5438 5439 5439 5439 5437 5436 5435 5433 5431 5430 5429 5427 5424 5421 5414 5411 5408 5404 5398 5388 5383 5377 5372 5367 5362 5357 5352 5348 5343 5338 5333 5328 5324 5319 5314 5308
5413 5415 5418 5420 5423 5424 5426 5428 5429 5431 5431 5431 5430 5430 5429 5428 5427 5425 5422 5421 5420 5416 5409 5407 5403 5399 5389 5382 5377 5371 5366 5362 5357 5352 5347 5342 5337 5332 5328 5324 5319 5314 5309 5304
5405 5407 5409 5412 5413 5415 5417 5420 5421 5423 5423 5423 5423 5422 5422 5420 5419 5417 5415 5414 5412 5409 5403 5400 5397 5391 5381 5376 5371 5366 5361 5357 5353 5348 5342 5338 5333 5328 5324 5320 5315 5310 5305 5299
5395 5398 5400 5402 5405 5407 5409 5411 5413 5415 5416 5417 5416 5415 5414 5413 5411 5409 5408 5406 5404 5400 5395 5392 5387 5381 5375 5370 5365 5360 5356 5351 5347 5342 5338 5333 5329 5325 5321 5316 5311 5306 5301 5295